Sparta, TN

7:11 AM CST on December 10, 2019 (GMT -0600)
Upper Cumberland Regional

Weather History for KSRB - November, 2019

Change the Weather History Date:

Sunday, November 17, 2019

  Actual Average (KCSV) Record (KCSV)
Temperature  
Mean Temperature 40 °F 47 °F  
Max Temperature 60 °F 57 °F 75 °F (2016)
Min Temperature 21 °F 37 °F 14 °F (1959)
Degree Days  
Heating Degree Days 24    
Month to date heating degree days  
Since 1 July heating degree days  
Cooling Degree Days 0    
Month to date cooling degree days  
Year to date cooling degree days  
Moisture  
Dew Point 29 °F    
Average Humidity 74    
Maximum Humidity 100    
Minimum Humidity 31    
Precipitation  
Precipitation 0.00 in 0.19 in 1.66 in (1987)
Month to date precipitation 2.57  
Year to date precipitation 47.61  
Sea Level Pressure  
Sea Level Pressure 29.98 in    
Wind  
Wind Speed 1 mph ()    
Max Wind Speed 8 mph    
Max Gust Speed 14 mph    
Visibility 9.4 miles    
Events      
T = Trace of Precipitation, MM = Missing Value Source: Averaged Metar Reports

Daily Weather History Graph

Daily Weather History Graph

Search for Another Location

Airport or City:

Astronomy

Nov. 17, 2019 Rise Set
Actual Time 6:20 AM CST 4:33 PM CST
Civil Twilight 5:53 AM CST 5:00 PM CST
Nautical Twilight 5:22 AM CST 5:31 PM CST
Astronomical Twilight 4:51 AM CST 6:02 PM CST
Moon 9:11 PM CST (11/17) 11:03 AM CST (11/17)
Length of Visible Light 11h 07m
Length of Day
10h 12m
Waning Gibbous, 73% of the Moon is Illuminated
Nov 17
Waning Gibbous
Nov 19
Last Quarter
Nov 26
New
Dec 4
First Quarter
Dec 11
Full

Hourly Weather History & Observations

Time (CST) Temp. Windchill Dew Point Humidity Pressure Visibility Wind Dir Wind Speed Gust Speed Precip Events Conditions
12:15 AM 23.0 °F - 21.2 °F 93% 30.08 in 7.0 mi Calm Calm - N/A   Clear
12:35 AM 23.0 °F - 23.0 °F 100% 30.07 in 8.0 mi Calm Calm - N/A   Clear
12:55 AM 23.0 °F - 21.2 °F 93% 30.07 in 7.0 mi Calm Calm - N/A   Clear
1:15 AM 23.0 °F - 21.2 °F 93% 30.07 in 6.0 mi Calm Calm - N/A   Clear
1:35 AM 23.0 °F - 21.2 °F 93% 30.07 in 5.0 mi Calm Calm - N/A   Clear
1:55 AM 21.2 °F - 19.4 °F 93% 30.07 in 7.0 mi Calm Calm - N/A   Clear
2:15 AM 23.0 °F - 21.2 °F 93% 30.07 in 6.0 mi Calm Calm - N/A   Clear
2:35 AM 23.0 °F - 21.2 °F 93% 30.07 in 9.0 mi Calm Calm - N/A   Clear
2:55 AM 21.2 °F - 21.2 °F 100% 30.07 in 9.0 mi Calm Calm - N/A   Clear
3:15 AM 21.2 °F - 19.4 °F 93% 30.07 in 8.0 mi Calm Calm - N/A   Clear
3:35 AM 21.2 °F - 21.2 °F 100% 30.08 in 10.0 mi Calm Calm - N/A   Clear
3:55 AM 21.2 °F - 21.2 °F 100% 30.08 in 9.0 mi Calm Calm - N/A   Clear
4:15 AM 21.2 °F - 19.4 °F 93% 30.08 in 8.0 mi Calm Calm - N/A   Clear
4:35 AM 21.2 °F 14.9 °F 21.2 °F 100% 30.07 in 9.0 mi ENE 4.6 mph - N/A   Clear
5:15 AM 23.0 °F - 21.2 °F 93% 30.08 in 8.0 mi Calm Calm - N/A   Clear
5:35 AM 21.2 °F - 21.2 °F 100% 30.08 in 10.0 mi Calm Calm - N/A   Clear
5:55 AM 23.0 °F - 21.2 °F 93% 30.07 in 10.0 mi Calm Calm - N/A   Clear
6:15 AM 21.2 °F - 19.4 °F 93% 30.08 in 9.0 mi Calm Calm - N/A   Clear
6:55 AM 24.8 °F - 23.0 °F 93% 30.08 in 9.0 mi Calm Calm - N/A   Clear
7:15 AM 28.4 °F - 26.6 °F 93% 30.07 in 8.0 mi Calm Calm - N/A   Clear
7:35 AM 30.2 °F - 28.4 °F 93% 30.07 in 9.0 mi Calm Calm - N/A   Clear
7:55 AM 32.0 °F - 30.2 °F 93% 30.07 in 10.0 mi Calm Calm - N/A   Clear
8:15 AM 33.8 °F - 32.0 °F 93% 30.06 in 10.0 mi Calm Calm - N/A   Clear
8:35 AM 37.4 °F - 32.0 °F 81% 30.06 in 10.0 mi Calm Calm - N/A   Clear
8:55 AM 41.0 °F - 33.8 °F 76% 30.06 in 10.0 mi Calm Calm - N/A   Clear
9:15 AM 44.6 °F - 33.8 °F 66% 30.05 in 10.0 mi Calm Calm - N/A   Clear
9:35 AM 46.4 °F - 35.6 °F 66% 30.04 in 10.0 mi Calm Calm - N/A   Clear
9:50 AM 48.2 °F - 33.8 °F 58% 30.04 in 10.0 mi Calm Calm - N/A   Clear
10:15 AM 51.8 °F - 33.8 °F 50% 30.03 in 10.0 mi SW 6.9 mph - N/A   Clear
10:35 AM 53.6 °F - 32.0 °F 44% 30.02 in 10.0 mi SW 4.6 mph - N/A   Clear
10:55 AM 53.6 °F - 32.0 °F 44% 30.01 in 10.0 mi SW 5.8 mph - N/A   Clear
11:15 AM 55.4 °F - 32.0 °F 41% 30.00 in 10.0 mi SSW 5.8 mph - N/A   Clear
11:35 AM 57.2 °F - 30.2 °F 36% 29.99 in 10.0 mi SW 8.1 mph - N/A   Clear
11:55 AM 59.0 °F - 30.2 °F 34% 29.98 in 10.0 mi Variable 4.6 mph - N/A   Clear
12:15 PM 59.0 °F - 28.4 °F 31% 29.96 in 10.0 mi SW 5.8 mph 13.8 mph N/A   Clear
12:35 PM 60.8 °F - 30.2 °F 31% 29.95 in 10.0 mi WSW 6.9 mph - N/A   Clear
12:55 PM 59.0 °F - 30.2 °F 34% 29.95 in 10.0 mi SW 6.9 mph - N/A   Clear
1:15 PM 59.0 °F - 28.4 °F 31% 29.94 in 10.0 mi WSW 5.8 mph - N/A   Clear
1:35 PM 59.0 °F - 28.4 °F 31% 29.94 in 10.0 mi WSW 5.8 mph - N/A   Clear
1:55 PM 59.0 °F - 28.4 °F 31% 29.94 in 10.0 mi Calm Calm - N/A   Clear
2:15 PM 59.0 °F - 30.2 °F 34% 29.93 in 10.0 mi Variable 4.6 mph - N/A   Clear
2:35 PM 59.0 °F - 32.0 °F 36% 29.92 in 10.0 mi Calm Calm - N/A   Clear
2:55 PM 59.0 °F - 32.0 °F 36% 29.92 in 10.0 mi Variable 4.6 mph - N/A   Clear
3:15 PM 57.2 °F - 33.8 °F 41% 29.92 in 10.0 mi NNW 5.8 mph - N/A   Clear
3:35 PM 55.4 °F - 33.8 °F 44% 29.92 in 10.0 mi Calm Calm - N/A   Clear
3:55 PM 51.8 °F - 37.4 °F 58% 29.91 in 10.0 mi Calm Calm - N/A   Clear
4:15 PM 48.2 °F - 35.6 °F 62% 29.91 in 10.0 mi Calm Calm - N/A   Clear
4:35 PM 48.2 °F - 35.6 °F 62% 29.91 in 10.0 mi Calm Calm - N/A   Clear
4:55 PM 44.6 °F - 35.6 °F 71% 29.91 in 10.0 mi Calm Calm - N/A   Clear
5:15 PM 42.8 °F - 33.8 °F 70% 29.91 in 10.0 mi Calm Calm - N/A   Clear
5:35 PM 41.0 °F - 33.8 °F 76% 29.92 in 10.0 mi Calm Calm - N/A   Clear
5:55 PM 41.0 °F - 35.6 °F 81% 29.92 in 10.0 mi Calm Calm - N/A   Clear
6:15 PM 41.0 °F - 33.8 °F 76% 29.91 in 10.0 mi Calm Calm - N/A   Clear
6:35 PM 41.0 °F - 33.8 °F 76% 29.90 in 10.0 mi Calm Calm - N/A   Clear
6:55 PM 41.0 °F 39.0 °F 35.6 °F 81% 29.89 in 10.0 mi East 3.5 mph - N/A   Clear
7:15 PM 41.0 °F 39.0 °F 35.6 °F 81% 29.88 in 10.0 mi East 3.5 mph - N/A   Clear
7:35 PM 42.8 °F - 35.6 °F 76% 29.88 in 10.0 mi Calm Calm - N/A   Clear
7:55 PM 41.0 °F 38.0 °F 35.6 °F 81% 29.89 in 10.0 mi NW 4.6 mph - N/A   Clear
8:15 PM 39.2 °F - 35.6 °F 87% 29.89 in 10.0 mi Calm Calm - N/A   Clear
8:35 PM 39.2 °F - 35.6 °F 87% 29.90 in 10.0 mi Calm Calm - N/A   Clear
8:55 PM 37.4 °F - 33.8 °F 87% 29.90 in 10.0 mi Calm Calm - N/A   Clear
9:15 PM 37.4 °F - 33.8 °F 87% 29.90 in 10.0 mi Calm Calm - N/A   Clear
9:35 PM 37.4 °F - 33.8 °F 87% 29.89 in 10.0 mi Calm Calm - N/A   Clear
9:55 PM 37.4 °F 34.9 °F 33.8 °F 87% 29.88 in 10.0 mi ESE 3.5 mph - N/A   Partly Cloudy
10:15 PM 37.4 °F - 33.8 °F 87% 29.88 in 10.0 mi Calm Calm - N/A   Clear
10:35 PM 35.6 °F - 33.8 °F 93% 29.87 in 10.0 mi Calm Calm - N/A   Clear
10:55 PM 32.0 °F - 32.0 °F 100% 29.87 in 10.0 mi Calm Calm - N/A   Clear
11:00 PM 32.0 °F - 30.2 °F 93% 29.87 in 10.0 mi Calm Calm - N/A   Clear